When you browse on this site, cookies collect data to enhance your experience and personalize the content and advertising you see.
Visit our Privacy Policy to learn more. By continuing to use the site, you agree to this use of cookies and data.
  • In Latvia
  • List of Countries
  • For 7 days
  • Water Temperature
  • Weather Map
  • Weather Widgets
  • user-avatar
    Login

    Hourly Weather Gold Coast

    Today, 8 December, Sunday

    Time Temperature Precipitation Wind Pressure Humidity
    00:00 +20°C° 0 mm 4 mps 756 mmHg 88%
    01:00 +19°C° 0 mm 3 mps 756 mmHg 90%
    02:00 +19°C° 0 mm 3 mps 756 mmHg 91%
    03:00 +19°C° 0 mm 3 mps 756 mmHg 92%
    04:00 +19°C° 0 mm 3 mps 756 mmHg 93%
    05:00 +21°C° 0 mm 4 mps 757 mmHg 87%
    06:00 +22°C° 0 mm 4 mps 758 mmHg 81%
    07:00 +25°C° 0 mm 5 mps 759 mmHg 74%
    08:00 +26°C° 0.1 mm 5 mps 759 mmHg 68%
    09:00 +28°C° 0.1 mm 5 mps 759 mmHg 63%
    10:00 +29°C° 0.1 mm 5 mps 759 mmHg 57%
    11:00 +30°C° 0 mm 5 mps 758 mmHg 54%
    12:00 +32°C° 0 mm 5 mps 758 mmHg 52%
    13:00 +33°C° 0 mm 5 mps 758 mmHg 49%
    14:00 +32°C° 0 mm 6 mps 758 mmHg 53%
    15:00 +30°C° 0 mm 6 mps 758 mmHg 57%
    16:00 +29°C° 0 mm 7 mps 757 mmHg 61%
    17:00 +27°C° 0 mm 6 mps 758 mmHg 68%
    18:00 +25°C° 0 mm 5 mps 759 mmHg 76%
    19:00 +22°C° 0 mm 5 mps 760 mmHg 84%
    20:00 +22°C° 0.1 mm 4 mps 760 mmHg 86%
    21:00 +22°C° 0.1 mm 4 mps 761 mmHg 88%
    22:00 +22°C° 0.1 mm 4 mps 761 mmHg 90%
    23:00 +22°C° 0.2 mm 4 mps 761 mmHg 91%

    Tomorrow, 9 December, Monday

    Time Temperature Precipitation Wind Pressure Humidity
    00:00 +22°C° 0.2 mm 4 mps 761 mmHg 91%
    01:00 +22°C° 0.2 mm 4 mps 761 mmHg 92%
    02:00 +22°C° 0.1 mm 4 mps 761 mmHg 93%
    03:00 +21°C° 0.1 mm 4 mps 761 mmHg 95%
    04:00 +21°C° 0.1 mm 4 mps 761 mmHg 97%
    05:00 +22°C° 0.1 mm 4 mps 761 mmHg 91%
    06:00 +23°C° 0.1 mm 4 mps 761 mmHg 86%
    07:00 +26°C° 0.1 mm 4 mps 762 mmHg 81%
    08:00 +27°C° 0.2 mm 4 mps 762 mmHg 78%
    09:00 +27°C° 0.2 mm 4 mps 762 mmHg 76%
    10:00 +28°C° 0.2 mm 4 mps 762 mmHg 73%
    11:00 +28°C° 0.2 mm 4 mps 761 mmHg 72%
    12:00 +29°C° 0.2 mm 5 mps 761 mmHg 70%
    13:00 +29°C° 0.2 mm 5 mps 760 mmHg 68%
    14:00 +28°C° 0.1 mm 5 mps 760 mmHg 72%
    15:00 +28°C° 0.1 mm 5 mps 760 mmHg 76%
    16:00 +27°C° 0.1 mm 5 mps 760 mmHg 80%
    17:00 +26°C° 0.1 mm 4 mps 760 mmHg 84%
    18:00 +25°C° 0.1 mm 4 mps 760 mmHg 88%
    19:00 +24°C° 0.1 mm 3 mps 760 mmHg 93%
    20:00 +24°C° 0 mm 3 mps 761 mmHg 94%
    21:00 +24°C° 0 mm 3 mps 761 mmHg 96%
    22:00 +24°C° 0 mm 2 mps 761 mmHg 97%
    23:00 +24°C° 0.1 mm 2 mps 761 mmHg 97%

    Day after tomorrow, 10 December, Tuesday

    Time Temperature Precipitation Wind Pressure Humidity
    00:00 +24°C° 0.1 mm 2 mps 760 mmHg 97%
    01:00 +24°C° 0.1 mm 2 mps 760 mmHg 96%
    02:00 +24°C° 0.1 mm 2 mps 759 mmHg 96%
    03:00 +24°C° 0.1 mm 2 mps 759 mmHg 97%
    04:00 +24°C° 0.1 mm 2 mps 759 mmHg 97%
    05:00 +25°C° 0.1 mm 2 mps 759 mmHg 93%
    06:00 +26°C° 0.1 mm 2 mps 759 mmHg 90%
    07:00 +26°C° 0.1 mm 2 mps 759 mmHg 86%
    08:00 +28°C° 0 mm 3 mps 759 mmHg 77%
    09:00 +30°C° 0 mm 3 mps 759 mmHg 68%
    10:00 +31°C° 0 mm 3 mps 759 mmHg 58%
    11:00 +33°C° 0 mm 4 mps 758 mmHg 55%
    12:00 +34°C° 0 mm 4 mps 757 mmHg 53%
    13:00 +35°C° 0 mm 5 mps 756 mmHg 50%
    14:00 +34°C° 0 mm 5 mps 756 mmHg 54%
    15:00 +33°C° 0 mm 5 mps 755 mmHg 59%
    16:00 +32°C° 0 mm 5 mps 755 mmHg 64%
    17:00 +28°C° 0.1 mm 5 mps 755 mmHg 73%
    18:00 +26°C° 0.1 mm 4 mps 756 mmHg 83%
    19:00 +23°C° 0.1 mm 4 mps 756 mmHg 92%
    20:00 +23°C° 0.1 mm 4 mps 757 mmHg 93%
    21:00 +23°C° 0.1 mm 4 mps 757 mmHg 95%
    22:00 +22°C° 0.1 mm 3 mps 757 mmHg 96%
    23:00 +24°C° 0 mm 3 mps 757 mmHg 96%

    11 December, Wednesday

    Time Temperature Precipitation Wind Pressure Humidity
    00:00 +24°C° 0 mm 3 mps 756 mmHg 95%
    01:00 +24°C° 0 mm 3 mps 755 mmHg 95%
    02:00 +24°C° 0 mm 3 mps 755 mmHg 94%
    03:00 +24°C° 0 mm 3 mps 755 mmHg 94%
    04:00 +24°C° 0 mm 3 mps 755 mmHg 94%
    05:00 +25°C° 0 mm 3 mps 755 mmHg 90%
    06:00 +26°C° 0 mm 3 mps 756 mmHg 85%
    07:00 +27°C° 0 mm 3 mps 756 mmHg 81%
    08:00 +29°C° 0 mm 3 mps 756 mmHg 71%
    09:00 +31°C° 0 mm 3 mps 756 mmHg 62%
    10:00 +34°C° 0 mm 4 mps 756 mmHg 52%
    11:00 +35°C° 0 mm 4 mps 755 mmHg 48%
    12:00 +36°C° 0 mm 5 mps 755 mmHg 45%
    13:00 +38°C° 0 mm 6 mps 754 mmHg 41%
    14:00 +34°C° 0.5 mm 5 mps 754 mmHg 52%
    15:00 +32°C° 0.5 mm 5 mps 754 mmHg 63%
    16:00 +28°C° 0.5 mm 4 mps 754 mmHg 73%
    17:00 +27°C° 0.9 mm 3 mps 754 mmHg 80%
    18:00 +25°C° 0.9 mm 2 mps 755 mmHg 86%
    19:00 +23°C° 0.9 mm 1 mps 756 mmHg 92%
    20:00 +23°C° 0 mm 2 mps 756 mmHg 92%
    21:00 +22°C° 0 mm 3 mps 756 mmHg 93%
    22:00 +22°C° 0 mm 3 mps 756 mmHg 93%
    23:00 +22°C° 0 mm 4 mps 755 mmHg 92%

    12 December, Thursday

    Time Temperature Precipitation Wind Pressure Humidity
    00:00 +22°C° 0 mm 4 mps 755 mmHg 92%
    01:00 +22°C° 0 mm 4 mps 754 mmHg 91%
    02:00 +22°C° 0 mm 4 mps 754 mmHg 92%
    03:00 +21°C° 0 mm 3 mps 754 mmHg 94%
    04:00 +21°C° 0 mm 3 mps 753 mmHg 95%
    05:00 +22°C° 0 mm 3 mps 754 mmHg 89%
    06:00 +25°C° 0 mm 4 mps 754 mmHg 82%
    07:00 +26°C° 0 mm 4 mps 755 mmHg 76%
    08:00 +28°C° 0 mm 4 mps 755 mmHg 66%
    09:00 +32°C° 0 mm 5 mps 755 mmHg 56%
    10:00 +34°C° 0 mm 5 mps 755 mmHg 46%
    11:00 +34°C° 0 mm 5 mps 754 mmHg 45%
    12:00 +35°C° 0 mm 6 mps 753 mmHg 44%
    13:00 +35°C° 0 mm 6 mps 753 mmHg 43%
    14:00 +34°C° 0 mm 6 mps 752 mmHg 47%
    15:00 +33°C° 0 mm 6 mps 752 mmHg 52%
    16:00 +30°C° 0 mm 6 mps 751 mmHg 56%
    17:00 +28°C° 0.1 mm 5 mps 752 mmHg 65%
    18:00 +26°C° 0.1 mm 4 mps 752 mmHg 74%
    19:00 +24°C° 0.1 mm 3 mps 753 mmHg 83%
    20:00 +24°C° 0 mm 3 mps 754 mmHg 84%
    21:00 +23°C° 0 mm 2 mps 755 mmHg 86%
    22:00 +23°C° 0 mm 2 mps 755 mmHg 87%
    23:00 +23°C° 0.1 mm 2 mps 755 mmHg 87%

    13 December, Friday

    Time Temperature Precipitation Wind Pressure Humidity
    00:00 +23°C° 0.1 mm 2 mps 755 mmHg 87%
    01:00 +23°C° 0.1 mm 2 mps 754 mmHg 86%
    02:00 +22°C° 0 mm 3 mps 754 mmHg 86%
    03:00 +22°C° 0 mm 3 mps 754 mmHg 86%
    04:00 +22°C° 0 mm 4 mps 753 mmHg 87%
    05:00 +24°C° 0 mm 3 mps 753 mmHg 81%
    06:00 +25°C° 0 mm 3 mps 754 mmHg 76%
    07:00 +26°C° 0 mm 3 mps 754 mmHg 71%
    08:00 +29°C° 0 mm 3 mps 754 mmHg 61%
    09:00 +31°C° 0 mm 3 mps 754 mmHg 51%
    10:00 +35°C° 0 mm 3 mps 755 mmHg 41%
    11:00 +34°C° 0.1 mm 4 mps 754 mmHg 45%
    12:00 +33°C° 0.1 mm 4 mps 754 mmHg 49%
    13:00 +32°C° 0.1 mm 5 mps 753 mmHg 53%
    14:00 +30°C° 0.2 mm 5 mps 752 mmHg 57%
    15:00 +29°C° 0.2 mm 4 mps 752 mmHg 61%
    16:00 +28°C° 0.2 mm 4 mps 751 mmHg 65%
    17:00 +27°C° 2.5 mm 3 mps 752 mmHg 75%
    18:00 +25°C° 2.5 mm 3 mps 753 mmHg 85%
    19:00 +23°C° 2.5 mm 2 mps 754 mmHg 95%
    20:00 +21°C° 8.2 mm 2 mps 754 mmHg 96%
    21:00 +22°C° 8.2 mm 1 mps 755 mmHg 96%
    22:00 +21°C° 8.2 mm 1 mps 755 mmHg 97%
    23:00 +21°C° 0 mm 1 mps 755 mmHg 97%
    Show more